TimeCDT,TemperatureF,Dew PointF,Humidity,Sea Level PressureIn,VisibilityMPH,Wind Direction,Wind SpeedMPH,Gust SpeedMPH,PrecipitationIn,Events,Conditions,WindDirDegrees,DateUTC
12:53 AM,81.0,72.0,74,29.89,10.0,SW,9.2,17.3,N/A,,Clear,230,2013-06-13 05:53:00
1:53 AM,81.0,72.0,74,29.90,10.0,SW,8.1,-,N/A,,Clear,220,2013-06-13 06:53:00
2:53 AM,80.1,72.0,76,29.89,10.0,SW,8.1,-,N/A,,Mostly Cloudy,220,2013-06-13 07:53:00
3:53 AM,80.1,72.0,76,29.88,10.0,SW,9.2,-,N/A,,Mostly Cloudy,230,2013-06-13 08:53:00
4:53 AM,80.1,72.0,76,29.88,10.0,SW,9.2,-,N/A,,Mostly Cloudy,230,2013-06-13 09:53:00
5:53 AM,80.1,72.0,76,29.89,10.0,WSW,8.1,-,N/A,,Mostly Cloudy,240,2013-06-13 10:53:00
6:53 AM,81.0,72.0,74,29.89,10.0,WSW,9.2,17.3,N/A,,Clear,240,2013-06-13 11:53:00
7:53 AM,82.9,72.0,69,29.90,10.0,West,12.7,18.4,N/A,,Clear,260,2013-06-13 12:53:00
8:53 AM,86.0,73.0,65,29.90,10.0,West,17.3,26.5,N/A,,Clear,280,2013-06-13 13:53:00
9:53 AM,88.0,73.0,61,29.90,10.0,NW,16.1,-,N/A,,Clear,310,2013-06-13 14:53:00
10:53 AM,90.0,71.1,54,29.90,10.0,WNW,12.7,25.3,N/A,,Partly Cloudy,300,2013-06-13 15:53:00
11:53 AM,90.0,66.0,45,29.91,10.0,NW,15.0,27.6,N/A,,Clear,320,2013-06-13 16:53:00
12:53 PM,90.0,64.0,42,29.92,10.0,NW,16.1,24.2,N/A,,Clear,320,2013-06-13 17:53:00
1:53 PM,90.0,64.9,43,29.92,10.0,North,19.6,23.0,N/A,,Clear,360,2013-06-13 18:53:00
2:53 PM,89.1,64.9,45,29.92,10.0,North,18.4,24.2,N/A,,Partly Cloudy,350,2013-06-13 19:53:00
3:53 PM,87.1,64.0,46,29.92,10.0,North,18.4,26.5,N/A,,Scattered Clouds,360,2013-06-13 20:53:00
4:53 PM,86.0,64.9,49,29.92,10.0,North,19.6,32.2,N/A,,Mostly Cloudy,360,2013-06-13 21:53:00
5:53 PM,84.9,64.0,49,29.92,10.0,NE,12.7,21.9,N/A,,Mostly Cloudy,40,2013-06-13 22:53:00
6:53 PM,84.0,63.0,49,29.92,10.0,NNE,11.5,18.4,N/A,,Clear,20,2013-06-13 23:53:00
7:53 PM,81.0,63.0,54,29.94,10.0,NNE,13.8,-,N/A,,Partly Cloudy,20,2013-06-14 00:53:00
8:53 PM,77.0,63.0,62,29.95,10.0,North,10.4,-,N/A,,Clear,10,2013-06-14 01:53:00
9:53 PM,73.9,64.0,71,29.96,10.0,NNE,4.6,-,N/A,,Clear,30,2013-06-14 02:53:00
10:53 PM,71.1,64.0,78,29.96,10.0,North,4.6,-,N/A,,Clear,10,2013-06-14 03:53:00
11:53 PM,70.0,64.0,81,29.96,10.0,Calm,Calm,-,N/A,,Clear,0,2013-06-14 04:53:00